Showing default

ALOS-4, 60182

Orbit data source: Space-Track

ALOS-4, 60182 is a payload satellite owned by JAXA (JP) in SSO that was launched on Mon, 01 Jul 2024 UTC via a H3-22S launch vehicle from the Tanegashima Space Center (TNSTA). Payload-class satellites include a variety of spacecraft equipped with specific instruments for various scientific and technological missions. These include communications satellites like Starlink; space stations such as the ISS; scientific satellites like the Hubble; Earth observation satellites from companies like Planet Labs, Umbra, and HawkEye 360; GPS; miniature CubeSats for education and research; and military/defense satellites.

Loading next visibility...
Identifier
60182, 2024-123A
Orbit
SSO
Last TLE update
10 hours ago
Origin
Manufacturer
MELCO
Mission
Operational Civil Imaging
Bus & Motor
ALOS, AOCS
Mass
2,900 kg wet, ~2,500 kg dry
Launch date (UTC)
Icon of a cake. It is the launch day of the satellite!2024-07-01 (1 year ago)
Launch vehicle
H3-22S
Launch site
Tanegashima Space Center (TNSTA)
Object type
Payload
Rocket body
Debris
Shape & HBR
Box + 2 Pan, 16.5 m
Radar Cross Section
36.926 m², Large (>1 m²)

Expand to show TLE details & history

TLE from 10 hours ago
0 ALOS-4
1 60182U 24123A   25181.87347632  .00001118  00000-0  15650-3 0  9997
2 60182  97.9221 279.0831 0001586  98.2673 261.8719 14.79472546 53937
Epoch: 2025-06-30T20:57Z
TLE epoch observation values (Epoch: 2025-06-30T20:57:48.354Z)
Latitude
0.00006°
Longitude
45.45458°
Altitude
634.167 km
Speed
7.541 km/s
True Right ascension
18h 36m 19s
True Declination
0° 00' 00"
Sunlit
Object was in full shadow at epoch
Visualization orbit readout
Latitude
73.80385°
Longitude
-105.66918°
Altitude
642.541 km
Speed
7.544 km/s
Apparent Right ascension
07h 17m 33s
Apparent Declination
21° 30' 51"
Sunlit
Object is in daylight
Visualization observer readout
Local Sidereal Time
18:48:13
Azimuth
352.257° N
Elevation
-28.19°
Doppler factor
1
Orbital elements
Apogee altitude
629.143 km
Perigee altitude
626.921 km
Semi-major axis
7,006.169 km
Eccentricity
0.00016
Inclination
97.9221°
RAAN
279.0831°
Arg. of periapsis
98.2673°
True anomaly
Unknown
Mean anomaly
261.8719°
Eccentric anomaly
Unknown
Mean motion
3.70103 °/min
Orbital period
97.27 mins
BSTAR
0.0001565
Loading maneuver chart data...
Loading SW <> Apogee altitude chart data...
Loading historical data...
Loading historical data...
Loading historical data...
Loading historical data...
Loading historical data...
Loading historical data...
Loading historical data...
Other satellites on launch #123 in the year 2024 (2024-07-01 UTC)

ALOS-4 Visibility forecast

Observer location: undefined°, undefined°

Span
Click to sort rows by Start time (UTC) header in descending order
Start Az.
Max El. time (UTC)
Max El. Az.
Max El.
End time (UTC)
End Az.
7 mins2025-07-01 18:38:19.061Z36.845° NE2025-07-01 18:42:19.061Z103.773° ESE24.99°2025-07-01 18:45:19.061Z152.404° SSE
5 mins2025-07-01 20:16:19.061Z328.353° NNW2025-07-01 20:18:19.061Z289.305° WNW22.632°2025-07-01 20:21:19.061Z240.871° WSW
5 mins2025-07-02 05:35:19.061Z104.742° ESE2025-07-02 05:37:19.061Z69.436° E20.726°2025-07-02 05:40:19.061Z21.033° NNE
|